Powrót do katalogu

FENGYUN 1C DEB

LostPO
NORAD 31709·DEBRIS·🇨🇳 China

Wystrzelony May 10, 1999 z Taiyuan Satellite Launch Center

Loading…

Następne Przeloty (najbliższe 24 godziny)

TLE

NieaktualneSource: Space-Track

Epoka: Mar 24, 2024, 20:01 UTC

1 31709U 99025CDG 24084.83455175  .00041740  00000-0  18268-1 0  9993
2 31709  98.0156 108.1427 0162308 295.1016  63.3394 14.16725482849861

Śledź FENGYUN 1C DEB w czasie rzeczywistym z AllMySat

Download on the App Store